^^
Station Historical Data
Daily Summary for September 4, 2021 Units:  English    Metric   Both
Daily Weekly Monthly Yearly
  High: Low: Average:
Temperature: 73.1 °F 64.5 °F 68.4 °F
Dew Point: 65.2 °F 57.8 °F 61.3 °F
Humidity: 87% 66% 78%
Wind Speed: 5mph 1mph 1.4mph
Wind Gust: 9mph - -
Wind- - ESE
Pressure: 30.04 in 29.70 in -
Precipitation: 0.00 in    
 
 
Tabular Data for September 4, 2021
Time Temperature Dew Point Pressure Wind Wind Speed Wind Gust Humidity Rainfall Rate (Hourly) solar
00:00 66.9 °F 58.3 °F 30.04 in SE 1 mph 1 mph 74% 0.00 in 0 W/m2
00:05 66.8 °F 58.2 °F 30.04 in South 1 mph 1 mph 74% 0.00 in 0 W/m2
00:10 66.7 °F 58.1 °F 30.04 in ESE 1 mph 1 mph 74% 0.00 in 0 W/m2
00:15 66.7 °F 57.8 °F 30.03 in ESE 1 mph 1 mph 73% 0.00 in 0 W/m2
00:20 66.7 °F 58.1 °F 30.03 in NE 1 mph 1 mph 74% 0.00 in 0 W/m2
00:25 66.7 °F 57.8 °F 30.03 in East 1 mph 2 mph 73% 0.00 in 0 W/m2
00:30 66.8 °F 58.2 °F 30.03 in South 1 mph 1 mph 74% 0.00 in 0 W/m2
00:35 66.9 °F 58 °F 30.03 in ESE 1 mph 2 mph 73% 0.00 in 0 W/m2
00:40 66.9 °F 58.7 °F 30.03 in SE 1 mph 1 mph 75% 0.00 in 0 W/m2
00:45 66.8 °F 58.6 °F 30.03 in NE 1 mph 1 mph 75% 0.00 in 0 W/m2
00:50 66.7 °F 58.5 °F 30.03 in ESE 1 mph 1 mph 75% 0.00 in 0 W/m2
00:55 66.6 °F 58.8 °F 30.03 in NE 1 mph 1 mph 76% 0.00 in 0 W/m2
01:00 66.5 °F 58 °F 30.03 in NE 1 mph 1 mph 74% 0.00 in 0 W/m2
01:05 66.5 °F 58.3 °F 30.03 in East 1 mph 1 mph 75% 0.00 in 0 W/m2
01:10 66.4 °F 57.9 °F 30.03 in SE 1 mph 1 mph 74% 0.00 in 0 W/m2
01:15 66.4 °F 58.2 °F 30.03 in SE 1 mph 1 mph 75% 0.00 in 0 W/m2
01:20 66.3 °F 58.1 °F 30.03 in ESE 1 mph 1 mph 75% 0.00 in 0 W/m2
01:25 66.3 °F 58.5 °F 30.03 in SE 1 mph 1 mph 76% 0.00 in 0 W/m2
01:30 66.3 °F 58.5 °F 30.03 in East 1 mph 1 mph 76% 0.00 in 0 W/m2
01:35 66.3 °F 58.5 °F 30.03 in SSW 1 mph 2 mph 76% 0.00 in 0 W/m2
01:40 66.4 °F 58.6 °F 30.03 in WSW 1 mph 1 mph 76% 0.00 in 0 W/m2
01:45 66.4 °F 58.6 °F 30.03 in ESE 1 mph 1 mph 76% 0.00 in 0 W/m2
01:50 66.5 °F 59.1 °F 30.03 in ESE 1 mph 2 mph 77% 0.00 in 0 W/m2
01:55 66.3 °F 58.9 °F 30.03 in SSW 1 mph 2 mph 77% 0.00 in 0 W/m2
02:00 66.3 °F 58.9 °F 30.03 in East 1 mph 2 mph 77% 0.00 in 0 W/m2
02:05 66.2 °F 58.8 °F 30.03 in NE 1 mph 2 mph 77% 0.00 in 0 W/m2
02:10 66.2 °F 58.8 °F 30.03 in SSW 1 mph 2 mph 77% 0.00 in 0 W/m2
02:15 66.1 °F 58.3 °F 30.03 in SE 1 mph 2 mph 76% 0.00 in 0 W/m2
02:20 66.1 °F 59 °F 30.03 in SE 1 mph 2 mph 78% 0.00 in 0 W/m2
02:25 66.1 °F 59 °F 30.03 in SW 1 mph 2 mph 78% 0.00 in 0 W/m2
02:30 66.2 °F 59.5 °F 30.02 in SE 1 mph 1 mph 79% 0.00 in 0 W/m2
02:35 66.2 °F 59.5 °F 30.02 in East 1 mph 2 mph 79% 0.00 in 0 W/m2
02:40 66.2 °F 59.1 °F 30.03 in NE 1 mph 1 mph 78% 0.00 in 0 W/m2
02:45 66.1 °F 59 °F 30.03 in NNE 1 mph 1 mph 78% 0.00 in 0 W/m2
02:50 66.1 °F 58.7 °F 30.02 in NE 1 mph 1 mph 77% 0.00 in 0 W/m2
02:55 66.1 °F 59 °F 30.02 in NE 1 mph 1 mph 78% 0.00 in 0 W/m2
03:00 66 °F 58.9 °F 30.02 in North 1 mph 1 mph 78% 0.00 in 0 W/m2
03:05 65.9 °F 59.2 °F 30.02 in ENE 1 mph 1 mph 79% 0.00 in 0 W/m2
03:10 65.9 °F 59.2 °F 30.01 in NE 1 mph 1 mph 79% 0.00 in 0 W/m2
03:15 65.9 °F 59.2 °F 30.01 in NW 1 mph 1 mph 79% 0.00 in 0 W/m2
03:20 65.9 °F 59.2 °F 30.01 in NNE 1 mph 2 mph 79% 0.00 in 0 W/m2
03:25 65.9 °F 59.2 °F 30.01 in NNW 1 mph 2 mph 79% 0.00 in 0 W/m2
03:30 65.8 °F 59.1 °F 30.02 in NNE 1 mph 2 mph 79% 0.00 in 0 W/m2
03:35 65.8 °F 59.1 °F 30.01 in NNE 1 mph 3 mph 79% 0.00 in 0 W/m2
03:40 65.8 °F 59.5 °F 30.01 in NE 1 mph 2 mph 80% 0.00 in 0 W/m2
03:45 65.7 °F 59.4 °F 30.01 in WNW 1 mph 2 mph 80% 0.00 in 0 W/m2
03:50 65.6 °F 59.3 °F 30.01 in NW 1 mph 1 mph 80% 0.00 in 0 W/m2
03:55 65.6 °F 59.6 °F 30.01 in NNW 1 mph 2 mph 81% 0.00 in 0 W/m2
04:00 65.5 °F 59.5 °F 30.01 in ENE 1 mph 2 mph 81% 0.00 in 0 W/m2
04:05 65.5 °F 59.5 °F 30.01 in North 1 mph 2 mph 81% 0.00 in 0 W/m2
04:10 65.4 °F 59.4 °F 30.01 in NE 1 mph 2 mph 81% 0.00 in 0 W/m2
04:15 65.4 °F 59.4 °F 30.01 in ENE 1 mph 4 mph 81% 0.00 in 0 W/m2
04:20 65.4 °F 59.8 °F 30.00 in SE 1 mph 1 mph 82% 0.00 in 0 W/m2
04:25 65.5 °F 59.9 °F 30.00 in ESE 1 mph 1 mph 82% 0.00 in 0 W/m2
04:30 65.6 °F 60 °F 30.00 in NE 1 mph 1 mph 82% 0.00 in 0 W/m2
04:35 65.4 °F 59.4 °F 30.00 in WSW 1 mph 1 mph 81% 0.00 in 0 W/m2
04:40 65.5 °F 59.9 °F 30.00 in East 1 mph 1 mph 82% 0.00 in 0 W/m2
04:45 65.4 °F 59.8 °F 30.00 in SSW 1 mph 1 mph 82% 0.00 in 0 W/m2
04:50 65.4 °F 59.8 °F 30.00 in NNW 1 mph 2 mph 82% 0.00 in 0 W/m2
04:55 65.4 °F 59.4 °F 29.99 in NW 1 mph 2 mph 81% 0.00 in 0 W/m2
05:00 65.4 °F 59.8 °F 29.99 in NE 1 mph 1 mph 82% 0.00 in 0 W/m2
05:05 65.4 °F 59.8 °F 29.99 in NE 1 mph 1 mph 82% 0.00 in 0 W/m2
05:10 65.4 °F 59.8 °F 29.99 in NW 1 mph 3 mph 82% 0.00 in 0 W/m2
05:15 65.4 °F 59.8 °F 29.99 in NNW 1 mph 3 mph 82% 0.00 in 0 W/m2
05:20 65.5 °F 59.9 °F 29.99 in East 1 mph 1 mph 82% 0.00 in 0 W/m2
05:25 65.5 °F 59.5 °F 29.99 in SE 1 mph 1 mph 81% 0.00 in 0 W/m2
05:30 65.5 °F 59.9 °F 29.99 in ENE 1 mph 1 mph 82% 0.00 in 0 W/m2
05:35 65.4 °F 59.4 °F 29.99 in SE 1 mph 2 mph 81% 0.00 in 0 W/m2
05:40 65.4 °F 59.4 °F 29.98 in SSE 1 mph 3 mph 81% 0.00 in 0 W/m2
05:45 65.3 °F 59.3 °F 29.99 in SE 1 mph 3 mph 81% 0.00 in 0 W/m2
05:50 65.4 °F 59.4 °F 29.98 in SE 1 mph 1 mph 81% 0.00 in 0 W/m2
05:55 65.3 °F 59.7 °F 29.98 in SE 1 mph 2 mph 82% 0.00 in 0 W/m2
06:00 65.2 °F 59.2 °F 29.98 in NNW 1 mph 1 mph 81% 0.00 in 0 W/m2
06:05 65.1 °F 59.1 °F 29.98 in SSE 1 mph 1 mph 81% 0.00 in 0 W/m2
06:10 65.1 °F 59.5 °F 29.98 in SSE 1 mph 1 mph 82% 0.00 in 0 W/m2
06:15 65 °F 59.4 °F 29.98 in SE 1 mph 1 mph 82% 0.00 in 0 W/m2
06:20 65 °F 59.7 °F 29.98 in SSE 1 mph 1 mph 83% 0.00 in 0 W/m2
06:25 65 °F 59 °F 29.98 in SE 1 mph 1 mph 81% 0.00 in 0 W/m2
06:30 65 °F 59.4 °F 29.98 in NW 1 mph 2 mph 82% 0.00 in 0 W/m2
06:35 64.9 °F 58.9 °F 29.99 in South 1 mph 2 mph 81% 0.00 in 0 W/m2
06:40 64.9 °F 59.3 °F 29.99 in West 1 mph 1 mph 82% 0.00 in 0 W/m2
06:45 64.9 °F 59.3 °F 29.98 in East 1 mph 1 mph 82% 0.00 in 0 W/m2
06:50 64.9 °F 58.9 °F 29.98 in East 1 mph 1 mph 81% 0.00 in 0 W/m2
06:55 64.9 °F 59.3 °F 29.97 in SSW 1 mph 1 mph 82% 0.00 in 0 W/m2
07:00 64.9 °F 59.3 °F 29.97 in SE 1 mph 2 mph 82% 0.00 in 0 W/m2
07:05 64.8 °F 59.2 °F 29.97 in SE 1 mph 2 mph 82% 0.00 in 5 W/m2
07:10 64.6 °F 59 °F 29.97 in SSE 1 mph 3 mph 82% 0.00 in 7 W/m2
07:15 64.6 °F 59 °F 29.97 in NE 1 mph 3 mph 82% 0.00 in 12 W/m2
07:20 64.5 °F 58.9 °F 29.97 in North 1 mph 1 mph 82% 0.00 in 18 W/m2
07:25 64.5 °F 59.2 °F 29.97 in ESE 1 mph 2 mph 83% 0.00 in 23 W/m2
07:30 64.5 °F 58.9 °F 29.97 in ENE 1 mph 1 mph 82% 0.00 in 33 W/m2
07:35 64.6 °F 59 °F 29.98 in NE 1 mph 1 mph 82% 0.00 in 35 W/m2
07:40 64.6 °F 59.3 °F 29.98 in SE 1 mph 1 mph 83% 0.00 in 35 W/m2
07:45 64.7 °F 59.1 °F 29.98 in South 1 mph 1 mph 82% 0.00 in 39 W/m2
07:50 64.7 °F 59.1 °F 29.98 in SW 1 mph 1 mph 82% 0.00 in 46 W/m2
07:55 64.7 °F 59.1 °F 29.98 in North 1 mph 1 mph 82% 0.00 in 54 W/m2
08:00 64.7 °F 59.1 °F 29.98 in West 1 mph 1 mph 82% 0.00 in 56 W/m2
08:05 64.7 °F 59.1 °F 29.98 in NE 1 mph 1 mph 82% 0.00 in 58 W/m2
08:10 64.7 °F 59.1 °F 29.98 in NE 1 mph 1 mph 82% 0.00 in 69 W/m2
08:15 64.7 °F 59.1 °F 29.98 in NW 1 mph 1 mph 82% 0.00 in 93 W/m2
08:20 64.8 °F 59.2 °F 29.98 in NW 1 mph 1 mph 82% 0.00 in 95 W/m2
08:25 64.9 °F 59.6 °F 29.98 in SE 1 mph 3 mph 83% 0.00 in 113 W/m2
08:30 64.9 °F 59.3 °F 29.98 in SSE 1 mph 2 mph 82% 0.00 in 105 W/m2
08:35 65 °F 59.4 °F 29.97 in NNW 1 mph 2 mph 82% 0.00 in 130 W/m2
08:40 65.1 °F 59.5 °F 29.97 in NE 1 mph 1 mph 82% 0.00 in 160 W/m2
08:45 65.3 °F 59.7 °F 29.97 in NNE 1 mph 1 mph 82% 0.00 in 243 W/m2
08:50 65.5 °F 59.9 °F 29.97 in South 1 mph 1 mph 82% 0.00 in 130 W/m2
08:55 65.6 °F 59.6 °F 29.97 in NNE 1 mph 1 mph 81% 0.00 in 134 W/m2
09:00 65.7 °F 60.1 °F 29.97 in ESE 1 mph 1 mph 82% 0.00 in 137 W/m2
09:05 65.8 °F 59.8 °F 29.96 in ENE 1 mph 2 mph 81% 0.00 in 171 W/m2
09:10 65.8 °F 60.2 °F 29.96 in ESE 1 mph 1 mph 82% 0.00 in 281 W/m2
09:15 66 °F 60.3 °F 29.95 in SE 1 mph 1 mph 82% 0.00 in 90 W/m2
09:20 66.1 °F 60.1 °F 29.95 in ESE 1 mph 1 mph 81% 0.00 in 77 W/m2
09:25 66.1 °F 60.1 °F 29.95 in ESE 1 mph 3 mph 81% 0.00 in 81 W/m2
09:30 66.2 °F 60.2 °F 29.95 in NE 1 mph 1 mph 81% 0.00 in 72 W/m2
09:35 66.1 °F 60.4 °F 29.94 in NE 1 mph 1 mph 82% 0.00 in 91 W/m2
09:40 66.2 °F 60.5 °F 29.94 in NE 1 mph 2 mph 82% 0.00 in 118 W/m2
09:45 66.2 °F 60.5 °F 29.94 in NNW 1 mph 2 mph 82% 0.00 in 125 W/m2
09:50 66.3 °F 61 °F 29.93 in NE 1 mph 2 mph 83% 0.00 in 135 W/m2
09:55 66.3 °F 61 °F 29.93 in North 1 mph 2 mph 83% 0.00 in 137 W/m2
10:00 66.3 °F 61 °F 29.93 in SE 1 mph 1 mph 83% 0.00 in 116 W/m2
10:05 66.3 °F 61 °F 29.92 in NE 1 mph 1 mph 83% 0.00 in 128 W/m2
10:10 66.4 °F 61.1 °F 29.92 in NNE 1 mph 1 mph 83% 0.00 in 156 W/m2
10:15 66.6 °F 61.3 °F 29.93 in ENE 1 mph 1 mph 83% 0.00 in 174 W/m2
10:20 66.8 °F 61.5 °F 29.93 in East 1 mph 1 mph 83% 0.00 in 181 W/m2
10:25 66.9 °F 61.2 °F 29.92 in North 1 mph 1 mph 82% 0.00 in 309 W/m2
10:30 67.3 °F 61.6 °F 29.93 in NNE 1 mph 1 mph 82% 0.00 in 410 W/m2
10:35 67.6 °F 61.6 °F 29.92 in SE 1 mph 1 mph 81% 0.00 in 355 W/m2
10:40 67.7 °F 61.3 °F 29.93 in ENE 1 mph 1 mph 80% 0.00 in 390 W/m2
10:45 68 °F 61.6 °F 29.92 in ESE 1 mph 1 mph 80% 0.00 in 311 W/m2
10:50 68.1 °F 61.7 °F 29.92 in NW 1 mph 1 mph 80% 0.00 in 200 W/m2
10:55 68.2 °F 61.8 °F 29.92 in East 1 mph 2 mph 80% 0.00 in 127 W/m2
11:00 68.1 °F 61.7 °F 29.92 in NNE 1 mph 1 mph 80% 0.00 in 98 W/m2
11:05 68.1 °F 61.7 °F 29.92 in NE 1 mph 1 mph 80% 0.00 in 100 W/m2
11:10 68.1 °F 62 °F 29.92 in NNE 1 mph 1 mph 81% 0.00 in 100 W/m2
11:15 68.1 °F 61.3 °F 29.91 in NE 1 mph 2 mph 79% 0.00 in 100 W/m2
11:20 68.1 °F 61.7 °F 29.91 in NW 1 mph 1 mph 80% 0.00 in 111 W/m2
11:25 68.2 °F 61.8 °F 29.91 in East 2 mph 2 mph 80% 0.00 in 160 W/m2
11:30 68.2 °F 61.8 °F 29.91 in East 1 mph 1 mph 80% 0.00 in 199 W/m2
11:35 68.4 °F 62 °F 29.91 in NE 1 mph 1 mph 80% 0.00 in 183 W/m2
11:40 68.4 °F 62 °F 29.90 in North 1 mph 1 mph 80% 0.00 in 178 W/m2
11:45 68.5 °F 62.1 °F 29.90 in East 1 mph 1 mph 80% 0.00 in 156 W/m2
11:50 68.6 °F 62.2 °F 29.90 in East 1 mph 1 mph 80% 0.00 in 200 W/m2
11:55 68.9 °F 62.8 °F 29.90 in SE 1 mph 1 mph 81% 0.00 in 652 W/m2
12:00 69.4 °F 62.6 °F 29.89 in ESE 1 mph 1 mph 79% 0.00 in 510 W/m2
12:05 69.8 °F 62.6 °F 29.89 in East 1 mph 1 mph 78% 0.00 in 330 W/m2
12:10 70 °F 62.5 °F 29.89 in North 1 mph 1 mph 77% 0.00 in 304 W/m2
12:15 70.1 °F 62.9 °F 29.89 in WSW 1 mph 1 mph 78% 0.00 in 295 W/m2
12:20 70.1 °F 62.6 °F 29.89 in East 1 mph 2 mph 77% 0.00 in 281 W/m2
12:25 70.2 °F 62.3 °F 29.89 in ENE 1 mph 2 mph 76% 0.00 in 253 W/m2
12:30 70.3 °F 63.1 °F 29.88 in NW 1 mph 1 mph 78% 0.00 in 202 W/m2
12:35 70.3 °F 62.4 °F 29.88 in North 1 mph 1 mph 76% 0.00 in 225 W/m2
12:40 70.4 °F 62.5 °F 29.87 in WNW 1 mph 1 mph 76% 0.00 in 237 W/m2
12:45 70.5 °F 62.9 °F 29.88 in East 1 mph 1 mph 77% 0.00 in 207 W/m2
12:50 70.5 °F 62.9 °F 29.87 in NE 1 mph 1 mph 77% 0.00 in 220 W/m2
12:55 70.6 °F 62.7 °F 29.88 in NNE 1 mph 1 mph 76% 0.00 in 223 W/m2
13:00 70.6 °F 62.7 °F 29.88 in East 1 mph 2 mph 76% 0.00 in 167 W/m2
13:05 70.6 °F 62.7 °F 29.87 in NE 1 mph 2 mph 76% 0.00 in 130 W/m2
13:10 70.5 °F 62.6 °F 29.88 in NNE 1 mph 1 mph 76% 0.00 in 146 W/m2
13:15 70.6 °F 62.7 °F 29.87 in North 1 mph 1 mph 76% 0.00 in 230 W/m2
13:20 70.8 °F 62.5 °F 29.87 in North 1 mph 1 mph 75% 0.00 in 301 W/m2
13:25 71 °F 62.7 °F 29.87 in NE 1 mph 1 mph 75% 0.00 in 316 W/m2
13:30 71.3 °F 63 °F 29.87 in North 1 mph 1 mph 75% 0.00 in 362 W/m2
13:35 71.6 °F 63.3 °F 29.86 in NE 1 mph 2 mph 75% 0.00 in 371 W/m2
13:40 71.8 °F 63.4 °F 29.86 in NE 1 mph 1 mph 75% 0.00 in 406 W/m2
13:45 72.1 °F 63.7 °F 29.86 in SW 1 mph 1 mph 75% 0.00 in 413 W/m2
13:50 72.2 °F 63.1 °F 29.85 in ENE 1 mph 1 mph 73% 0.00 in 385 W/m2
13:55 72.3 °F 63.2 °F 29.85 in ESE 1 mph 1 mph 73% 0.00 in 323 W/m2
14:00 72.5 °F 63.4 °F 29.85 in NNE 1 mph 2 mph 73% 0.00 in 457 W/m2
14:05 72.6 °F 63.4 °F 29.85 in NNE 1 mph 2 mph 73% 0.00 in 320 W/m2
14:10 72.5 °F 63.4 °F 29.84 in SE 1 mph 1 mph 73% 0.00 in 237 W/m2
14:15 72.2 °F 62.3 °F 29.84 in NNE 1 mph 1 mph 71% 0.00 in 179 W/m2
14:20 72.2 °F 63.4 °F 29.84 in SE 1 mph 1 mph 74% 0.00 in 193 W/m2
14:25 72.2 °F 63.1 °F 29.84 in NE 1 mph 1 mph 73% 0.00 in 269 W/m2
14:30 72.3 °F 63.2 °F 29.84 in SSE 1 mph 1 mph 73% 0.00 in 272 W/m2
14:35 72.4 °F 63.3 °F 29.83 in ESE 1 mph 1 mph 73% 0.00 in 283 W/m2
14:40 72.5 °F 63 °F 29.83 in North 1 mph 2 mph 72% 0.00 in 420 W/m2
14:45 72.6 °F 63.1 °F 29.83 in North 1 mph 2 mph 72% 0.00 in 357 W/m2
14:50 72.7 °F 62.3 °F 29.83 in NE 1 mph 1 mph 70% 0.00 in 376 W/m2
14:55 72.8 °F 62 °F 29.82 in SW 1 mph 5 mph 69% 0.00 in 446 W/m2
15:00 73 °F 62.6 °F 29.82 in NE 1 mph 1 mph 70% 0.00 in 490 W/m2
15:05 73 °F 61.4 °F 29.82 in NE 1 mph 1 mph 67% 0.00 in 306 W/m2
15:10 73 °F 62.6 °F 29.82 in ESE 1 mph 2 mph 70% 0.00 in 301 W/m2
15:15 72.9 °F 62.9 °F 29.82 in SE 1 mph 2 mph 71% 0.00 in 195 W/m2
15:20 72.8 °F 62.8 °F 29.81 in NE 1 mph 1 mph 71% 0.00 in 160 W/m2
15:25 72.8 °F 62.8 °F 29.81 in North 1 mph 1 mph 71% 0.00 in 163 W/m2
15:30 72.8 °F 62.8 °F 29.81 in North 1 mph 1 mph 71% 0.00 in 160 W/m2
15:35 72.8 °F 63.6 °F 29.81 in North 1 mph 2 mph 73% 0.00 in 123 W/m2
15:40 72.8 °F 61.6 °F 29.81 in ESE 1 mph 1 mph 68% 0.00 in 107 W/m2
15:45 72.9 °F 62.1 °F 29.81 in North 1 mph 1 mph 69% 0.00 in 111 W/m2
15:50 73 °F 62.6 °F 29.80 in North 1 mph 2 mph 70% 0.00 in 155 W/m2
15:55 73 °F 62.2 °F 29.80 in NNW 1 mph 2 mph 69% 0.00 in 151 W/m2
16:00 73 °F 62.2 °F 29.80 in East 2 mph 2 mph 69% 0.00 in 153 W/m2
16:05 73.1 °F 61.9 °F 29.80 in NE 2 mph 2 mph 68% 0.00 in 127 W/m2
16:10 73 °F 61.4 °F 29.80 in North 2 mph 3 mph 67% 0.00 in 135 W/m2
16:15 73 °F 61.8 °F 29.79 in NNE 2 mph 3 mph 68% 0.00 in 116 W/m2
16:20 73.1 °F 61.1 °F 29.79 in NNE 2 mph 3 mph 66% 0.00 in 88 W/m2
16:25 73 °F 61.4 °F 29.79 in NE 2 mph 3 mph 67% 0.00 in 72 W/m2
16:30 73 °F 62.2 °F 29.79 in NNE 2 mph 2 mph 69% 0.00 in 137 W/m2
16:35 73 °F 62.2 °F 29.79 in NNE 2 mph 2 mph 69% 0.00 in 149 W/m2
16:40 73 °F 61.8 °F 29.79 in NE 2 mph 2 mph 68% 0.00 in 162 W/m2
16:45 73 °F 62.6 °F 29.79 in NNE 2 mph 2 mph 70% 0.00 in 146 W/m2
16:50 72.9 °F 62.1 °F 29.78 in NNE 2 mph 2 mph 69% 0.00 in 178 W/m2
16:55 73 °F 62.2 °F 29.78 in NNW 2 mph 3 mph 69% 0.00 in 148 W/m2
17:00 72.9 °F 62.5 °F 29.77 in North 2 mph 2 mph 70% 0.00 in 114 W/m2
17:05 72.8 °F 62.4 °F 29.77 in NNE 2 mph 2 mph 70% 0.00 in 104 W/m2
17:10 72.8 °F 62 °F 29.77 in North 2 mph 2 mph 69% 0.00 in 118 W/m2
17:15 72.8 °F 61.6 °F 29.77 in NNW 2 mph 2 mph 68% 0.00 in 123 W/m2
17:20 72.8 °F 62.4 °F 29.77 in NNE 2 mph 2 mph 70% 0.00 in 47 W/m2
17:25 72.7 °F 61.9 °F 29.77 in NE 2 mph 2 mph 69% 0.00 in 37 W/m2
17:30 72.6 °F 62.3 °F 29.77 in NE 2 mph 2 mph 70% 0.00 in 44 W/m2
17:35 72.6 °F 62.3 °F 29.77 in NNE 2 mph 2 mph 70% 0.00 in 72 W/m2
17:40 72.6 °F 62.7 °F 29.77 in NNE 2 mph 2 mph 71% 0.00 in 51 W/m2
17:45 72.4 °F 62.9 °F 29.77 in NE 2 mph 3 mph 72% 0.00 in 32 W/m2
17:50 72.2 °F 62.7 °F 29.77 in NNE 2 mph 2 mph 72% 0.00 in 23 W/m2
17:55 71.8 °F 63.1 °F 29.77 in NE 2 mph 3 mph 74% 0.00 in 32 W/m2
18:00 71.3 °F 62.6 °F 29.76 in NE 2 mph 3 mph 74% 0.00 in 46 W/m2
18:05 70.8 °F 62.5 °F 29.76 in NNE 2 mph 4 mph 75% 0.00 in 28 W/m2
18:10 70.3 °F 62.7 °F 29.75 in North 2 mph 2 mph 77% 0.00 in 30 W/m2
18:15 69.9 °F 62 °F 29.75 in NNW 2 mph 2 mph 76% 0.00 in 39 W/m2
18:20 69.6 °F 62.4 °F 29.75 in North 2 mph 2 mph 78% 0.00 in 25 W/m2
18:25 69.5 °F 62.3 °F 29.75 in NE 1 mph 2 mph 78% 0.00 in 32 W/m2
18:30 69.4 °F 62.2 °F 29.75 in NNW 1 mph 1 mph 78% 0.00 in 28 W/m2
18:35 69.3 °F 62.1 °F 29.75 in NE 1 mph 2 mph 78% 0.00 in 28 W/m2
18:40 69.2 °F 62.4 °F 29.75 in NE 1 mph 1 mph 79% 0.00 in 25 W/m2
18:45 69 °F 62.2 °F 29.74 in ENE 1 mph 2 mph 79% 0.00 in 23 W/m2
18:50 68.6 °F 61.8 °F 29.74 in SE 1 mph 1 mph 79% 0.00 in 23 W/m2
18:55 68.4 °F 62 °F 29.74 in SSE 1 mph 1 mph 80% 0.00 in 19 W/m2
19:00 68.4 °F 62.3 °F 29.73 in SE 1 mph 2 mph 81% 0.00 in 14 W/m2
19:05 68.4 °F 62.3 °F 29.73 in West 1 mph 2 mph 81% 0.00 in 12 W/m2
19:10 68.5 °F 62.4 °F 29.73 in East 1 mph 1 mph 81% 0.00 in 9 W/m2
19:15 68.6 °F 62.5 °F 29.74 in WNW 1 mph 1 mph 81% 0.00 in 7 W/m2
19:30 68.7 °F 62.6 °F 29.73 in South 1 mph 3 mph 81% 0.00 in 5 W/m2
19:35 68.8 °F 63.1 °F 29.73 in ESE 1 mph 3 mph 82% 0.00 in 0 W/m2
19:40 69 °F 63.3 °F 29.73 in SSE 1 mph 1 mph 82% 0.00 in 0 W/m2
19:45 69.2 °F 62.8 °F 29.73 in SW 1 mph 1 mph 80% 0.00 in 0 W/m2
19:50 69.3 °F 62.9 °F 29.72 in SE 1 mph 2 mph 80% 0.00 in 0 W/m2
19:55 69.5 °F 63.1 °F 29.73 in NE 1 mph 2 mph 80% 0.00 in 0 W/m2
20:00 69.6 °F 62.8 °F 29.72 in SSE 1 mph 2 mph 79% 0.00 in 0 W/m2
20:05 69.6 °F 63.2 °F 29.72 in East 1 mph 2 mph 80% 0.00 in 0 W/m2
20:10 69.7 °F 63.3 °F 29.72 in NE 1 mph 1 mph 80% 0.00 in 0 W/m2
20:15 70 °F 62.8 °F 29.72 in North 1 mph 2 mph 78% 0.00 in 0 W/m2
20:20 70.1 °F 63.3 °F 29.72 in NE 2 mph 2 mph 79% 0.00 in 0 W/m2
20:30 70 °F 62.8 °F 29.72 in North 2 mph 2 mph 78% 0.00 in 0 W/m2
20:35 70 °F 63.2 °F 29.72 in NW 2 mph 2 mph 79% 0.00 in 0 W/m2
20:40 70 °F 63.2 °F 29.71 in ENE 2 mph 2 mph 79% 0.00 in 0 W/m2
20:45 69.9 °F 63.4 °F 29.71 in NNW 2 mph 2 mph 80% 0.00 in 0 W/m2
20:50 69.9 °F 62.7 °F 29.72 in NNE 2 mph 2 mph 78% 0.00 in 0 W/m2
20:55 69.9 °F 62.7 °F 29.72 in NE 2 mph 2 mph 78% 0.00 in 0 W/m2
21:00 70 °F 62.8 °F 29.71 in NNW 1 mph 2 mph 78% 0.00 in 0 W/m2
21:05 69.9 °F 63.1 °F 29.72 in NNE 2 mph 2 mph 79% 0.00 in 0 W/m2
21:10 69.9 °F 63.1 °F 29.72 in NE 2 mph 2 mph 79% 0.00 in 0 W/m2
21:15 69.9 °F 63.1 °F 29.72 in NNE 2 mph 2 mph 79% 0.00 in 0 W/m2
21:20 70 °F 63.5 °F 29.71 in NNE 2 mph 2 mph 80% 0.00 in 0 W/m2
21:25 70 °F 63.5 °F 29.72 in NNE 2 mph 2 mph 80% 0.00 in 0 W/m2
21:30 70.2 °F 63.7 °F 29.72 in NNE 1 mph 1 mph 80% 0.00 in 0 W/m2
21:35 70.2 °F 64.1 °F 29.72 in NNE 1 mph 1 mph 81% 0.00 in 0 W/m2
21:40 70.2 °F 64.1 °F 29.71 in SW 1 mph 1 mph 81% 0.00 in 0 W/m2
21:45 70.4 °F 64.3 °F 29.71 in ESE 2 mph 2 mph 81% 0.00 in 0 W/m2
21:50 70.6 °F 64.1 °F 29.71 in SW 2 mph 2 mph 80% 0.00 in 0 W/m2
21:55 70.7 °F 64.2 °F 29.71 in NNE 2 mph 2 mph 80% 0.00 in 0 W/m2
22:00 70.7 °F 64.2 °F 29.71 in SE 2 mph 2 mph 80% 0.00 in 0 W/m2
22:05 70.7 °F 64.2 °F 29.71 in NE 2 mph 2 mph 80% 0.00 in 0 W/m2
22:10 70.6 °F 64.5 °F 29.71 in SE 1 mph 1 mph 81% 0.00 in 0 W/m2
22:15 70.7 °F 64.6 °F 29.71 in SW 2 mph 6 mph 81% 0.00 in 0 W/m2
22:20 71 °F 65.2 °F 29.71 in SW 3 mph 6 mph 82% 0.00 in 0 W/m2
22:25 71.1 °F 65 °F 29.71 in South 4 mph 6 mph 81% 0.00 in 0 W/m2
22:30 71.2 °F 65.1 °F 29.71 in SSW 4 mph 6 mph 81% 0.00 in 0 W/m2
22:35 71.2 °F 65.1 °F 29.71 in SW 5 mph 6 mph 81% 0.00 in 0 W/m2
22:40 71.2 °F 64.7 °F 29.71 in North 5 mph 6 mph 80% 0.00 in 0 W/m2
22:45 70.9 °F 64.8 °F 29.71 in SSW 5 mph 6 mph 81% 0.00 in 0 W/m2
22:50 70.6 °F 64.8 °F 29.71 in West 5 mph 5 mph 82% 0.00 in 0 W/m2
22:55 70.3 °F 64.9 °F 29.71 in West 4 mph 5 mph 83% 0.00 in 0 W/m2
23:00 69.9 °F 64.5 °F 29.71 in West 3 mph 4 mph 83% 0.00 in 0 W/m2
23:05 69.7 °F 64.6 °F 29.71 in WSW 3 mph 4 mph 84% 0.00 in 0 W/m2
23:10 69.5 °F 64.5 °F 29.70 in West 4 mph 4 mph 84% 0.00 in 0 W/m2
23:15 69.2 °F 64.5 °F 29.70 in SW 4 mph 4 mph 85% 0.00 in 0 W/m2
23:20 69 °F 64.3 °F 29.70 in WNW 4 mph 4 mph 85% 0.00 in 0 W/m2
23:25 68.9 °F 64.2 °F 29.71 in West 4 mph 9 mph 85% 0.00 in 0 W/m2
23:30 68.8 °F 64.4 °F 29.70 in SW 4 mph 8 mph 86% 0.00 in 0 W/m2
23:35 68.7 °F 64.3 °F 29.70 in SW 4 mph 8 mph 86% 0.00 in 0 W/m2
23:40 68.5 °F 64.5 °F 29.70 in NW 4 mph 4 mph 87% 0.00 in 0 W/m2
23:45 68.5 °F 64.5 °F 29.70 in West 4 mph 4 mph 87% 0.00 in 0 W/m2
23:50 68.4 °F 64.4 °F 29.70 in NW 4 mph 6 mph 87% 0.00 in 0 W/m2
23:55 68.3 °F 64.3 °F 29.70 in WSW 4 mph 6 mph 87% 0.00 in 0 W/m2
Sand Point, Michigan, USA
Compliments of Weather Underground - 2 mb